DB0DUS-10 Weather Reports


time (UTC)temp
C
wind
direction
speed
KPH
gust
KPH
rain 1hr
cm
rain 24hr
cm
rain mn
cm
humidity
%
barometer
mb
20260502163309 27 351 0.0 6.4 0.00 0.00 0.00 38 1015.1
20260502160808 25 92 0.0 8.0 0.00 0.00 0.00 47 1015.5
20260502151809 23 78 0.0 3.2 0.00 0.00 0.00 52 1016.5
20260502150808 22 12 0.0 1.6 0.00 0.00 0.00 56 1016.4
20260502123809 33 253 11.3 14.5 0.00 0.00 0.00 23 1017.7
20260502122309 33 243 8.0 16.1 0.00 0.00 0.00 22 1017.9
20260502120809 30 246 6.4 17.7 0.00 0.00 0.00 28 1018.1
20260502115810 28 198 9.7 12.9 0.00 0.00 0.00 30 1018.3
20260502113809 28 199 8.0 17.7 0.00 0.00 0.00 30 1018.5
20260502113310 28 220 8.0 19.3 0.00 0.00 0.00 32 1018.6
20260502110809 28 161 4.8 19.3 0.00 0.00 0.00 31 1018.9
20260502104310 27 143 9.7 24.1 0.00 0.00 0.00 31 1019.2
20260502103809 27 180 12.9 16.1 0.00 0.00 0.00 31 1019.2
20260502101810 27 195 11.3 16.1 0.00 0.00 0.00 32 1019.3
20260502100809 26 222 11.3 12.9 0.00 0.00 0.00 33 1019.4
20260502090809 22 202 11.3 17.7 0.00 0.00 0.00 38 1020.0
20260502090310 22 161 9.7 19.3 0.00 0.00 0.00 37 1019.9
20260502070809 18 129 12.9 27.4 0.00 0.00 0.00 41 1019.9
20260502065810 18 161 17.7 25.7 0.00 0.00 0.00 43 1020.0
20260502063809 18 136 8.0 27.4 0.00 0.00 0.00 44 1020.0
20260502063310 17 144 19.3 27.4 0.00 0.00 0.00 45 1019.9
20260502060809 16 101 20.9 24.1 0.00 0.00 0.00 46 1019.7
20260502054310 16 154 12.9 25.7 0.00 0.00 0.00 48 1020.1
20260502053809 16 147 19.3 22.5 0.00 0.00 0.00 48 1020.1
20260502051810 15 118 14.5 22.5 0.00 0.00 0.00 50 1019.8
20260502050809 15 123 14.5 24.1 0.00 0.00 0.00 51 1019.8
20260502045310 14 133 14.5 24.1 0.00 0.00 0.00 52 1019.9
20260502043810 14 140 14.5 20.9 0.00 0.00 0.00 53 1019.8
20260502042810 14 149 14.5 24.1 0.00 0.00 0.00 53 1019.9
20260502040810 13 108 16.1 20.9 0.00 0.00 0.00 54 1019.9
20260502033810 13 170 12.9 22.5 0.00 0.00 0.00 54 1020.2
20260502031310 14 149 17.7 20.9 0.00 0.00 0.00 53 1020.3
20260502030810 14 139 12.9 19.3 0.00 0.00 0.00 53 1020.3
20260502024811 15 81 12.9 24.1 0.00 0.00 0.00 51 1020.4
20260502023810 15 116 8.0 24.1 0.00 0.00 0.00 51 1020.4
20260502022312 15 129 17.7 22.5 0.00 0.00 0.00 50 1020.5
20260502020810 15 127 14.5 19.3 0.00 0.00 0.00 49 1020.6
20260502015843 15 140 19.3 20.9 0.00 0.00 0.00 48 1020.6
20260502015811 15 140 19.3 20.9 0.00 0.00 0.00 48 1020.6
20260502013810 15 101 11.3 19.3 0.00 0.00 0.00 48 1020.7
20260502013311 15 111 14.5 19.3 0.00 0.00 0.00 48 1020.8
20260502010810 15 123 11.3 19.3 0.00 0.00 0.00 48 1021.1
20260502004311 16 125 11.3 19.3 0.00 0.00 0.00 47 1021.3
20260502003810 16 99 9.7 19.3 0.00 0.00 0.00 47 1021.3
20260502001811 16 142 14.5 17.7 0.00 0.00 0.00 46 1021.6
20260502000810 16 113 9.7 19.3 0.00 0.00 0.00 45 1021.7
20260501235311 16 132 9.7 19.3 0.00 0.00 0.00 44 1021.8
20260501233810 16 126 12.9 20.9 0.00 0.00 0.00 43 1021.9
20260501232811 17 132 12.9 22.5 0.00 0.00 0.00 43 1022.0
20260501230810 17 122 16.1 24.1 0.00 0.00 0.00 42 1021.9
20260501230311 17 126 12.9 20.9 0.00 0.00 0.00 42 1021.7
20260501223810 17 133 9.7 19.3 0.00 0.00 0.00 41 1022.0
20260501221312 17 105 12.9 17.7 0.00 0.00 0.00 40 1022.0
20260501220810 17 105 11.3 17.7 0.00 0.00 0.00 39 1022.1
20260501214812 18 126 12.9 17.7 0.00 0.00 0.00 38 1022.2
20260501213810 18 133 11.3 14.5 0.00 0.00 0.00 38 1022.3
20260501212312 18 109 8.0 17.7 0.00 0.00 0.00 37 1022.3
20260501210810 18 92 11.3 16.1 0.00 0.00 0.00 37 1022.5
20260501205811 18 111 8.0 17.7 0.00 0.00 0.00 36 1022.5
20260501203810 18 112 9.7 17.7 0.00 0.00 0.00 36 1022.6
20260501203311 18 94 9.7 17.7 0.00 0.00 0.00 36 1022.6
20260501200810 19 99 11.3 16.1 0.00 0.00 0.00 35 1022.6
20260501194311 20 113 9.7 12.9 0.00 0.00 0.00 33 1022.6
20260501193811 20 111 8.0 11.3 0.00 0.00 0.00 33 1022.6
20260501191811 20 144 3.2 12.9 0.00 0.00 0.00 31 1022.6
20260501190811 21 109 1.6 14.5 0.00 0.00 0.00 30 1022.5
20260501185312 21 105 12.9 14.5 0.00 0.00 0.00 29 1022.5
20260501183811 22 104 4.8 16.1 0.00 0.00 0.00 27 1022.5
20260501182811 22 74 11.3 19.3 0.00 0.00 0.00 26 1022.5
20260501180811 22 137 17.7 27.4 0.00 0.00 0.00 24 1022.5
20260501180311 22 94 19.3 27.4 0.00 0.00 0.00 24 1022.2
20260501173811 23 80 9.7 25.7 0.00 0.00 0.00 23 1022.3
20260501171312 23 88 8.0 29.0 0.00 0.00 0.00 22 1022.3
20260501170811 24 140 14.5 24.1 0.00 0.00 0.00 22 1022.4
20260501164812 24 49 14.5 33.8 0.00 0.00 0.00 21 1022.6
20260501163811 24 19 14.5 27.4 0.00 0.00 0.00 21 1022.6